Weather History for KLNS - November, 2012

Change the Weather History Date:

Thursday, November 8, 2012

  Actual Average Record
Temperature  
Mean Temperature 42 °F -  
Max Temperature 48 °F 55 °F 70 °F (1987)
Min Temperature 37 °F 35 °F 22 °F (1984)
Degree Days  
Heating Degree Days 22    
Moisture  
Dew Point 17 °F    
Average Humidity 37    
Maximum Humidity 47    
Minimum Humidity 26    
Precipitation  
Precipitation 0.00 in - - ()
Sea Level Pressure  
Sea Level Pressure 29.93 in    
Wind  
Wind Speed 13 mph (NW)    
Max Wind Speed 22 mph    
Max Gust Speed 30 mph    
Visibility 10 miles    
Events      
Averages and records for this station are not official NWS values.
T = Trace of Precipitation, MM = Missing Value Source: NWS Daily Summary

Daily Weather History Graph

Daily Weather History Graph

Search for Another Location

Airport or City:

Trip Planner

Search our weather history database for the weather conditions in past years. The results will help you decide how hot, cold, wet, or windy it might be!

Date:

Astronomy

Nov. 08, 2012 Rise Set
Actual Time 6:43 AM EST 4:54 PM EST
Civil Twilight 6:14 AM EST 5:23 PM EST
Nautical Twilight 5:41 AM EST 5:55 PM EST
Astronomical Twilight 5:10 AM EST 6:27 PM EST
Moon 12:35 AM EST (11/8) 1:34 PM EST (11/8)
Length of Visible Light 11h 08m
Length of Day
10h 11m
Waning Crescent, 33% of the Moon is Illuminated
Nov 8
Waning Crescent
Nov 13
New
Nov 20
First Quarter
Nov 28
Full
Dec 6
Last Quarter

Hourly Weather History & Observations

Time (EST) Temp. Windchill Dew Point Humidity Pressure Visibility Wind Dir Wind Speed Gust Speed Precip Events Conditions
12:53 AM 39.0 °F 31.8 °F 19.0 °F 45% 29.89 in 10.0 mi NNW 11.5 mph - N/A   Overcast
1:53 AM 39.0 °F 32.8 °F 19.0 °F 45% 29.89 in 10.0 mi NW 9.2 mph - N/A   Overcast
2:53 AM 37.9 °F 32.1 °F 19.0 °F 47% 29.88 in 10.0 mi WNW 8.1 mph - N/A   Overcast
3:53 AM 39.0 °F 32.8 °F 18.0 °F 43% 29.88 in 10.0 mi NW 9.2 mph - N/A   Overcast
4:53 AM 39.0 °F 29.9 °F 17.1 °F 41% 29.86 in 10.0 mi NW 17.3 mph 23.0 mph N/A   Overcast
5:53 AM 39.0 °F 30.6 °F 18.0 °F 43% 29.87 in 10.0 mi NW 15.0 mph 26.5 mph N/A   Overcast
6:53 AM 39.0 °F 29.6 °F 19.0 °F 45% 29.89 in 10.0 mi NNW 18.4 mph - N/A   Overcast
7:53 AM 39.0 °F 32.3 °F 19.0 °F 45% 29.91 in 10.0 mi NW 10.4 mph - N/A   Partly Cloudy
8:53 AM 41.0 °F 33.9 °F 18.0 °F 40% 29.92 in 10.0 mi WNW 12.7 mph - N/A   Clear
9:53 AM 42.1 °F 35.2 °F 18.0 °F 38% 29.93 in 10.0 mi NNW 12.7 mph 23.0 mph N/A   Clear
10:53 AM 45.0 °F 37.9 °F 19.9 °F 37% 29.94 in 10.0 mi NNW 16.1 mph 21.9 mph N/A   Clear
11:53 AM 46.9 °F - 19.0 °F 33% 29.92 in 10.0 mi North 18.4 mph 24.2 mph N/A   Clear
12:53 PM 48.0 °F - 19.9 °F 33% 29.90 in 10.0 mi NNW 19.6 mph 29.9 mph N/A   Clear
1:53 PM 48.9 °F - 19.0 °F 31% 29.89 in 10.0 mi NNW 21.9 mph 29.9 mph N/A   Clear
2:53 PM 48.9 °F - 19.0 °F 31% 29.90 in 10.0 mi NNW 18.4 mph 25.3 mph N/A   Clear
3:53 PM 48.0 °F - 15.1 °F 27% 29.91 in 10.0 mi NNW 20.7 mph 26.5 mph N/A   Clear
4:53 PM 46.9 °F - 14.0 °F 27% 29.92 in 10.0 mi NW 18.4 mph 24.2 mph N/A   Clear
5:53 PM 45.0 °F 39.7 °F 12.0 °F 26% 29.95 in 10.0 mi NW 10.4 mph - N/A   Clear
6:53 PM 44.1 °F 37.7 °F 12.9 °F 28% 29.97 in 10.0 mi NW 12.7 mph - N/A   Clear
7:53 PM 43.0 °F 35.4 °F 12.9 °F 30% 29.99 in 10.0 mi NW 16.1 mph - N/A   Clear
8:53 PM 42.1 °F 36.1 °F 12.9 °F 31% 30.01 in 10.0 mi NNW 10.4 mph - N/A   Clear
9:53 PM 39.9 °F 34.5 °F 14.0 °F 35% 30.03 in 10.0 mi NW 8.1 mph - N/A   Clear
10:53 PM 37.9 °F 33.5 °F 16.0 °F 41% 30.02 in 10.0 mi NW 5.8 mph - N/A   Clear
11:53 PM 39.0 °F 31.8 °F 17.1 °F 41% 30.04 in 10.0 mi NW 11.5 mph - N/A   Clear